Location: Newark
(51.3318°N, 0.0053°E)
Time: 02:47:24
(UTC+00:00)

CUBEBUG 2 - Pass Details

Date: 05 July 2022
Orbit: 584 x 692 km, 97.7° (Epoch: 14 August)

Event Time Altitude Azimuth Distance (km) Brightness Sun altitude
Rises 02:08:51 0° 24° (NNE) 2,844 ? -11.0°
Reaches altitude 10° 02:11:23 10° 39° (NE) 1,949 ? -10.8°
Maximum altitude 02:14:47 23° 93° (E) 1,302 ? -10.5°
Drops below altitude 10° 02:18:13 10° 146° (SSE) 1,980 ? -10.3°
Enters shadow 02:20:39 - 160° (SSE) 2,840 ? -10.1°
